Temperature
14 14 14 15 15 16 17 19 22 23 24 25 25 25 24 24 25 23 21 21 21 21 21 20 19 19 18 18 18 17 18 17 17 17 17 17 17 17 16 16 16 16 16 16 15 15 15 15 15
13 13 14 15 15 16 18 20 21 22 24 24 24 24 24 24 24 23 21 21 20 20 20 19 19 18 17 17 17 17 17 17 17 17 17 17 16 16 16 16 16 16 15 15 15 15 15 15 15
13 13 15 15 15 16 19 22 22 23 23 23 23 23 23 24 24 22 21 20 20 19 19 19 18 17 17 17 17 17 17 17 17 17 16 16 16 16 16 16 15 15 15 15 15 15 15 15 15
12 13 15 15 16 18 20 21 22 22 23 23 22 22 23 23 23 21 21 20 19 19 18 18 17 17 17 17 17 16 16 16 16 16 16 16 16 16 15 15 15 15 15 15 15 15 15 15 15
12 14 14 14 16 18 20 21 22 21 21 22 22 21 22 22 22 21 20 20 19 18 18 17 17 17 17 16 16 16 16 16 16 16 16 16 15 15 15 15 15 14 14 14 14 14 14 14 14
13 14 14 14 16 18 20 20 20 20 20 21 21 20 21 21 21 20 19 19 18 18 17 17 17 16 16 16 16 16 16 16 16 16 16 15 15 15 15 14 14 14 14 14 14 14 14 14 14
13 13 13 15 16 17 19 19 19 18 18 19 19 19 19 20 19 19 18 18 18 17 17 17 16 16 16 16 16 16 16 16 16 16 15 15 15 15 14 14 14 14 14 14 14 14 14 14 13
12 13 13 14 15 16 18 18 17 17 17 18 18 18 18 18 18 17 17 17 17 17 16 16 16 16 16 16 16 16 16 16 16 15 15 15 14 14 14 14 14 13 13 13 13 13 13 13 13
11 11 12 13 14 15 16 16 16 15 16 16 16 16 16 16 16 16 16 16 16 16 16 16 16 16 16 16 16 16 16 15 15 15 15 14 14 14 14 13 13 13 13 13 13 13 13 13 12
11 10 12 14 14 13 14 14 14 14 14 14 15 15 15 15 15 15 15 15 15 15 15 15 15 15 15 15 15 15 15 15 15 15 14 14 14 13 13 13 13 13 13 12 12 12 12 12 12
11 11 12 13 13 12 12 12 13 12 12 13 13 14 14 14 14 14 14 14 14 14 14 15 15 15 15 15 15 15 15 15 15 14 14 14 13 13 13 13 12 12 12 12 12 12 12 12 12
11 11 11 12 12 11 11 11 11 12 12 12 12 13 13 13 13 13 13 14 14 14 14 14 14 15 15 15 15 15 14 14 14 14 14 14 13 13 13 13 12 12 12 11 11 11 11 11 11
10 10 10 10 10 10 10 11 11 11 12 12 12 12 12 12 13 13 13 13 13 13 13 14 14 14 14 14 14 14 14 14 14 14 14 14 13 13 13 12 12 12 11 11 11 11 10 11 11
9 9 9 9 10 10 10 11 11 11 11 11 11 11 12 12 12 12 13 13 13 13 13 13 13 14 14 14 14 14 14 14 14 14 14 13 13 13 13 12 12 11 11 11 11 10 10 10 10
9 8 9 10 10 10 10 9 10 11 11 11 11 11 11 11 12 12 12 12 13 13 13 13 13 13 13 14 14 14 13 14 14 14 13 13 13 13 13 12 12 11 11 11 10 10 10 10 10
9 8 8 10 11 11 10 8 10 11 11 11 11 11 11 11 11 12 12 12 12 12 12 12 13 13 13 13 13 13 13 13 13 13 13 13 13 13 13 12 12 11 11 11 10 10 10 10 10
8 7 7 9 10 10 9 9 10 11 11 11 11 11 10 11 11 11 11 11 11 11 12 12 12 12 13 13 13 13 13 13 13 13 13 13 13 13 13 12 12 11 11 10 10 10 10 10 10
7 7 7 8 9 9 9 9 10 10 10 10 11 10 10 10 10 11 11 11 11 11 11 12 12 12 12 12 12 12 12 13 13 13 13 13 13 12 12 12 12 11 11 10 10 10 10 10 10
7 7 6 8 9 9 8 8 9 10 10 9 10 10 10 10 10 10 10 10 10 10 11 11 11 12 12 12 12 12 12 12 12 13 13 12 12 12 12 12 12 11 11 10 10 10 10 10 9
7 6 6 8 9 8 8 8 9 10 10 10 10 10 10 9 9 9 9 10 10 10 10 11 11 11 11 11 12 12 12 12 12 12 12 12 12 12 12 12 12 11 11 10 10 10 10 9 9
7 7 7 7 7 8 7 7 9 10 10 10 9 9 9 9 9 9 9 9 9 9 10 10 10 11 11 11 11 11 11 11 11 12 12 12 12 12 12 12 12 11 11 10 10 10 10 10 9
6 8 7 7 6 5 7 5 7 8 9 9 8 9 8 8 8 8 8 8 9 9 9 10 10 10 10 11 11 11 11 11 11 11 12 11 11 11 11 12 11 11 11 11 10 10 10 10 10
7 8 7 7 6 5 6 5 6 8 8 8 8 8 8 8 8 8 8 8 8 8 9 9 9 10 10 10 10 11 11 11 11 11 11 11 11 11 11 11 11 11 11 10 10 10 10 10 10
8 7 6 7 6 5 6 6 6 7 7 8 8 8 7 7 7 7 8 8 8 8 8 9 9 9 10 10 10 10 11 11 11 11 11 11 11 11 11 11 11 11 11 10 10 10 10 10 10
6 4 3 4 4 5 8 7 6 8 8 8 8 8 7 7 6 7 7 7 7 7 8 8 8 9 9 9 10 10 10 10 11 11 11 11 11 11 11 11 11 11 11 11 10 10 10 10 10
5 5 3 2 3 5 7 6 7 8 9 9 8 8 7 7 6 6 6 7 7 7 7 7 8 8 9 9 9 10 10 10 10 11 11 11 11 11 11 11 11 11 11 11 11 10 10 10 10
5 4 5 4 3 4 5 7 7 8 8 8 8 7 7 6 6 6 6 6 6 7 7 7 7 8 8 9 9 9 10 10 10 11 11 11 11 11 11 11 11 11 10 11 11 10 10 10 10
6 5 4 3 2 3 5 6 5 6 7 7 7 7 7 6 6 6 6 6 6 7 7 7 7 7 8 8 9 9 9 10 10 10 10 11 11 11 10 10 10 11 10 10 11 11 10 10 10
5 4 4 3 3 3 3 4 7 6 6 6 6 7 6 6 6 6 6 6 6 6 7 7 7 7 8 8 8 8 9 10 10 10 11 11 10 10 10 10 10 10 10 10 10 11 11 10 10
5 4 3 2 2 3 3 4 7 7 7 7 6 7 6 6 5 5 6 6 6 6 6 6 7 7 8 8 8 8 9 9 9 10 10 10 10 10 11 11 10 10 10 10 11 11 11 11 11
Wind_Speed
14 13 8 3 4 8 14 12 12 10 8 4 4 4 7 8 5 0 4 3 8 10 15 19 20 19 20 21 21 21 22 21 21 21 21 21 20 20 20 20 19 19 19 19 19 19 19 19 18
13 9 5 4 6 11 12 14 16 13 10 5 4 6 7 8 6 4 5 6 8 9 12 16 19 19 20 20 21 22 22 22 22 21 21 21 21 20 20 20 19 19 19 19 19 19 19 18 18
12 10 5 5 9 13 9 5 7 7 7 4 4 6 7 6 5 2 6 7 7 8 10 16 20 19 20 20 21 22 22 22 22 22 22 21 21 20 20 19 19 20 20 20 19 19 19 18 17
6 4 5 10 20 18 13 11 10 9 8 5 5 6 5 5 2 4 5 6 5 6 8 14 20 20 20 20 21 21 22 23 23 22 22 22 21 21 20 20 20 20 20 20 19 19 18 18 17
4 4 9 14 23 19 15 14 14 13 10 8 7 9 8 5 4 5 4 4 2 4 7 12 20 20 20 20 21 21 22 23 23 23 22 22 22 21 20 20 20 20 20 20 19 19 18 17 16
4 5 9 17 20 16 13 12 13 14 11 10 10 11 10 7 4 4 5 2 1 2 6 10 18 20 20 20 21 21 23 23 23 23 23 22 22 22 21 21 21 20 20 20 19 19 18 17 15
6 7 14 18 18 16 13 11 11 12 14 11 10 12 9 8 4 4 4 3 2 1 5 8 11 16 19 19 20 21 22 23 23 23 23 23 22 23 22 22 21 20 20 20 20 19 18 17 15
5 5 12 15 17 15 10 10 10 12 14 10 9 9 8 7 6 6 4 4 3 1 4 7 9 11 13 15 18 20 22 22 23 23 22 23 23 22 22 21 21 21 20 20 20 19 18 17 15
5 7 12 12 12 12 13 15 15 13 13 13 11 12 10 9 8 6 5 4 3 3 4 7 9 10 10 12 16 18 20 21 21 21 22 21 18 19 19 20 21 21 21 20 20 19 18 16 14
5 9 14 11 12 16 17 17 16 13 17 16 14 12 10 11 9 7 7 7 5 5 5 6 8 9 10 10 11 12 14 16 17 17 19 17 16 16 17 20 21 21 21 20 20 19 17 14 11
7 11 14 16 16 17 19 19 17 18 19 17 16 14 11 12 12 11 10 9 8 8 7 7 8 8 9 8 8 7 8 10 13 17 17 16 14 14 15 14 16 18 18 16 17 16 13 12 10
11 15 17 18 16 17 19 18 18 20 21 17 17 16 14 14 13 13 11 10 9 9 9 9 8 8 8 9 8 8 8 8 9 14 17 13 10 10 11 10 12 13 12 12 11 9 10 11 11
14 14 16 17 17 18 21 21 20 21 19 16 16 16 16 16 14 13 12 11 10 11 10 10 8 9 8 8 8 8 9 9 11 12 15 15 11 11 11 10 11 11 12 11 8 7 8 8 8
10 14 18 20 20 18 20 20 18 19 17 16 16 15 15 15 14 13 12 11 11 11 10 10 10 9 9 8 9 8 9 10 11 11 14 17 13 12 11 11 10 10 12 12 9 8 7 6 6
13 16 17 16 15 13 14 16 16 15 13 15 15 14 15 15 14 13 12 11 11 11 11 11 10 10 10 10 9 8 8 9 10 11 15 17 16 14 11 11 11 10 13 12 8 8 7 6 5
11 10 10 10 11 10 9 15 14 12 13 15 14 13 14 14 14 12 11 11 11 11 11 11 11 10 9 9 9 8 8 9 9 11 13 17 18 17 12 11 10 12 12 9 7 7 6 6 5
4 8 14 15 9 12 12 17 15 12 13 15 13 12 12 13 14 11 10 11 11 10 11 11 10 10 9 9 8 9 9 9 9 11 11 15 17 18 13 11 10 13 9 8 9 7 7 7 6
11 13 15 16 13 16 17 18 17 14 13 14 12 10 10 12 13 10 9 10 10 10 10 11 10 10 9 8 7 7 9 9 8 10 11 15 15 17 14 11 13 13 10 8 8 9 7 6 7
14 15 19 20 16 15 18 19 17 13 11 10 9 8 9 10 11 9 8 9 8 8 9 9 10 10 9 8 8 8 9 9 8 9 13 14 15 16 14 12 13 12 11 10 10 8 9 7 7
13 15 17 16 15 16 17 17 14 11 9 7 7 7 7 8 9 10 9 8 8 8 9 9 9 9 10 8 8 7 8 8 8 9 12 14 15 15 15 15 14 13 11 12 11 9 7 6 7
14 12 14 19 20 10 12 11 8 7 7 7 6 7 6 6 8 10 8 7 6 7 7 7 8 8 9 9 7 7 6 7 7 9 11 12 14 16 15 16 15 14 13 12 12 11 9 9 7
12 11 16 19 14 7 6 7 7 7 7 8 8 7 7 7 8 9 8 6 7 6 6 6 6 8 8 8 8 11 9 9 9 9 9 11 13 15 15 16 16 15 12 13 13 11 9 10 9
9 15 18 18 13 10 7 5 5 5 6 8 8 8 8 8 8 8 8 6 7 6 5 5 6 6 8 9 9 10 10 9 8 10 11 11 12 13 15 15 15 15 13 13 13 12 11 9 9
12 13 15 11 5 5 5 4 4 3 6 8 8 8 8 8 9 9 8 7 6 6 3 4 5 6 7 9 10 11 12 11 12 13 13 12 11 11 14 14 14 14 13 14 13 13 13 10 9
8 8 6 5 2 4 6 4 2 3 4 5 6 7 8 8 9 10 10 8 7 6 4 3 4 5 6 9 9 11 12 13 14 15 14 13 12 11 14 14 13 13 13 14 12 12 13 12 11
7 4 3 4 5 8 8 4 1 4 6 6 6 6 8 9 9 10 10 8 7 7 5 4 4 5 5 8 9 10 11 10 10 13 13 14 12 12 15 14 13 13 14 14 13 11 11 11 11
5 3 4 5 8 8 5 3 2 5 7 9 9 9 8 9 10 10 11 9 8 7 6 5 5 5 5 7 8 9 11 11 11 12 13 12 12 13 16 15 14 13 15 15 15 11 12 11 11
4 5 4 3 5 6 7 5 3 7 9 10 11 10 11 10 10 10 9 9 9 7 6 5 5 5 5 6 7 8 10 10 11 12 14 13 14 15 17 16 15 14 15 15 14 12 12 12 11
3 3 3 4 5 5 7 5 3 7 9 10 10 10 11 11 11 10 9 9 9 8 7 6 4 5 4 4 6 7 8 9 10 12 13 14 14 16 18 17 16 15 15 15 14 14 14 14 12
4 4 3 4 6 5 8 9 4 5 7 9 10 10 10 10 10 10 9 9 9 8 8 8 6 5 4 5 6 6 6 8 9 11 12 13 14 16 17 17 17 16 16 15 16 16 15 15 14
Wind_Direction
302 275 250 238 239 233 241 238 250 268 267 283 333 306 295 274 280 48 158 105 96 127 144 160 164 167 167 166 163 159 157 156 154 152 150 147 145 142 140 137 134 131 128 124 121 118 115 112 109
295 277 248 231 231 235 243 232 243 256 272 312 327 306 289 285 304 94 118 92 106 128 144 160 164 168 169 169 167 163 160 158 157 155 152 150 148 146 144 140 137 133 128 125 122 119 117 114 111
278 266 237 226 227 231 245 247 253 263 278 290 285 281 269 276 298 30 105 100 106 129 146 159 165 170 172 172 170 167 164 162 160 158 155 153 150 148 145 142 137 134 130 127 124 122 119 117 114
271 236 238 238 239 238 253 276 293 294 291 286 280 271 261 265 339 61 85 88 104 130 146 160 167 173 175 174 173 170 168 166 164 161 158 155 153 150 147 143 139 136 133 129 126 124 122 120 118
253 242 234 240 246 251 261 275 286 288 286 289 278 270 275 302 39 60 59 66 103 141 150 164 171 175 177 177 176 174 172 169 166 164 161 158 155 151 147 144 140 138 135 133 130 127 124 122 121
248 239 240 244 251 254 259 272 283 284 283 284 283 273 271 292 321 42 35 16 356 159 156 163 175 178 179 180 179 178 176 172 169 167 164 160 157 153 149 146 143 140 138 136 133 131 128 125 125
257 258 251 260 269 270 275 292 290 294 291 287 294 280 272 281 339 19 8 340 317 182 163 167 178 181 181 182 181 179 177 174 171 169 165 160 157 154 152 150 147 144 142 140 137 134 131 129 127
278 274 260 259 268 273 290 295 294 298 294 303 296 278 280 305 337 335 334 327 313 242 182 184 185 184 182 182 182 180 177 175 172 168 163 158 156 156 153 150 149 147 145 143 139 137 134 132 131
275 252 254 261 282 293 310 306 306 312 298 292 287 288 300 312 322 322 307 294 286 260 217 199 196 189 183 182 183 178 177 175 171 166 158 155 155 154 152 150 150 149 147 145 142 139 136 134 136
230 246 259 283 299 304 304 300 301 298 292 289 288 296 309 307 304 291 280 264 250 246 231 219 203 197 186 186 180 176 176 173 171 166 162 160 156 155 152 150 151 150 149 147 145 141 140 138 143
243 255 279 289 295 301 297 294 292 288 280 281 286 290 291 290 287 277 266 265 247 238 235 229 218 205 191 184 183 181 172 172 170 169 168 160 152 148 146 148 148 148 147 146 145 148 155 149 151
270 272 281 286 293 294 290 287 283 274 277 284 283 282 280 275 273 271 263 259 260 245 235 231 226 212 199 188 184 183 180 177 177 174 169 159 157 154 155 155 155 155 151 148 156 166 158 148 155
276 278 285 292 292 288 285 277 276 273 278 280 279 275 273 270 267 265 260 252 254 245 237 232 227 219 206 192 185 185 184 180 178 174 169 161 160 160 161 160 158 158 154 159 166 164 150 151 156
284 292 292 289 283 279 276 274 270 271 276 276 276 275 273 267 266 265 262 253 252 245 234 233 226 223 211 198 189 182 185 182 177 175 171 164 162 163 164 159 159 157 158 163 166 155 152 149 143
287 285 284 275 274 277 285 273 261 270 279 278 275 274 273 273 266 260 261 257 255 247 234 229 227 222 212 200 192 183 182 186 181 177 172 169 164 164 163 161 160 159 160 162 163 146 147 140 139
272 274 285 297 297 293 280 273 276 289 285 281 280 276 272 271 267 259 260 258 255 247 237 227 229 220 210 202 194 185 181 189 185 175 172 171 167 165 161 158 159 158 159 161 157 150 144 141 142
273 298 300 308 300 304 286 282 288 290 285 281 276 271 271 275 274 267 265 257 254 249 239 227 222 217 209 201 196 189 183 185 184 175 174 172 169 166 161 158 157 157 158 159 158 152 147 147 143
306 306 300 301 301 306 298 291 292 294 284 277 274 273 274 276 279 277 271 262 251 244 240 228 223 215 203 197 195 192 184 183 185 176 173 171 171 167 161 158 157 158 158 158 156 153 149 148 144
296 297 297 298 301 307 298 293 291 293 288 279 276 279 281 280 289 295 286 272 257 247 241 225 222 213 197 189 187 190 188 182 183 179 170 169 170 168 161 159 159 160 162 162 158 153 151 147 139
299 298 298 302 311 310 294 289 288 285 283 286 288 296 293 299 306 304 296 277 260 250 243 222 223 218 201 189 187 187 185 182 184 179 172 170 171 168 166 162 163 163 163 164 163 156 149 153 149
303 294 304 308 312 297 289 290 293 312 317 332 318 309 313 304 303 304 298 284 270 255 241 234 226 221 207 191 185 184 182 177 184 180 174 175 175 171 167 166 163 166 166 169 167 164 156 160 163
303 303 305 304 308 297 301 300 306 318 336 344 347 348 342 322 312 315 315 297 282 271 244 230 228 221 206 192 191 190 193 192 187 179 174 175 176 172 167 169 166 169 169 169 169 167 162 160 169
298 307 300 292 285 285 273 261 291 317 331 350 354 353 342 327 321 323 317 311 298 291 253 232 225 228 209 196 197 195 196 196 182 173 173 178 175 173 171 170 169 171 171 171 169 168 166 168 171
311 314 301 280 261 271 272 258 294 324 341 355 356 352 347 337 333 330 327 328 320 309 280 242 232 233 221 203 203 200 194 192 184 176 177 178 175 175 174 172 172 173 172 172 172 170 171 173 173
332 339 336 339 305 265 318 294 276 336 5 360 353 348 347 347 342 338 337 331 325 316 302 276 251 240 232 212 210 204 196 193 190 181 181 179 176 176 178 175 175 176 173 172 170 170 174 174 175
316 329 323 311 301 305 312 278 250 348 3 1 0 356 353 352 345 339 334 328 322 317 301 290 262 252 245 231 220 211 199 196 195 188 186 184 179 176 177 178 177 178 175 174 172 173 174 175 177
309 297 276 272 278 278 268 261 261 339 354 356 5 1 353 348 341 336 335 337 332 317 301 287 276 262 251 246 234 221 205 199 196 192 188 183 178 175 175 179 178 179 178 176 175 178 176 177 179
255 295 323 310 302 292 292 294 306 346 349 351 355 352 347 344 340 333 334 337 333 322 303 286 280 270 261 253 241 236 211 199 198 195 187 184 179 175 174 178 179 180 180 178 178 177 177 177 179
276 281 279 271 266 285 295 293 329 344 340 340 343 345 346 345 339 333 335 336 334 334 336 318 294 287 281 270 252 248 218 202 200 194 187 186 181 178 178 178 179 181 182 180 180 181 178 179 179
242 254 259 272 284 275 281 280 295 324 335 339 338 337 337 338 337 332 335 339 339 338 338 333 320 300 283 272 260 252 228 206 201 193 188 187 184 182 179 177 180 183 184 182 183 182 180 180 181
Height
1488 1490 1493 1496 1496 1492 1483 1470 1461 1457 1454 1453 1454 1456 1457 1458 1461 1466 1463 1461 1460 1461 1461 1464 1466 1469 1472 1475 1478 1481 1484 1487 1491 1494 1496 1499 1502 1504 1507 1509 1511 1513 1515 1516 1518 1519 1520 1522 1523
1487 1490 1493 1493 1492 1488 1474 1463 1460 1456 1454 1454 1455 1457 1458 1457 1458 1460 1460 1460 1460 1461 1462 1464 1466 1469 1471 1475 1478 1481 1484 1487 1490 1493 1496 1499 1501 1504 1507 1509 1511 1513 1515 1516 1518 1519 1520 1522 1523
1487 1489 1491 1487 1482 1475 1464 1453 1452 1452 1453 1454 1456 1457 1458 1458 1459 1459 1459 1459 1460 1461 1462 1464 1466 1469 1471 1474 1477 1480 1483 1486 1489 1492 1495 1498 1501 1504 1506 1509 1511 1512 1514 1516 1517 1519 1520 1522 1523
1488 1489 1487 1482 1471 1461 1458 1454 1452 1452 1453 1454 1456 1457 1456 1458 1459 1458 1458 1458 1459 1461 1462 1464 1466 1468 1471 1473 1476 1479 1482 1485 1488 1491 1494 1497 1500 1503 1505 1508 1510 1512 1514 1516 1517 1519 1520 1522 1523
1487 1486 1483 1475 1465 1459 1456 1454 1454 1453 1453 1454 1455 1455 1455 1456 1456 1456 1456 1457 1458 1460 1461 1463 1465 1467 1470 1472 1475 1478 1481 1484 1487 1490 1493 1496 1499 1501 1504 1507 1509 1511 1513 1515 1517 1518 1520 1521 1523
1486 1481 1478 1468 1458 1455 1454 1455 1454 1453 1453 1454 1455 1454 1453 1455 1455 1454 1455 1456 1457 1459 1460 1461 1464 1466 1468 1471 1473 1476 1479 1482 1485 1489 1492 1495 1497 1500 1503 1506 1508 1511 1513 1514 1516 1518 1520 1521 1523
1485 1480 1472 1464 1459 1456 1455 1455 1455 1454 1453 1454 1454 1453 1452 1453 1453 1452 1452 1454 1456 1457 1458 1459 1462 1464 1466 1469 1471 1474 1477 1480 1483 1486 1490 1493 1496 1499 1502 1504 1507 1510 1512 1514 1515 1517 1519 1521 1523
1482 1479 1469 1463 1460 1456 1455 1455 1456 1456 1454 1454 1454 1452 1451 1452 1451 1450 1450 1451 1453 1454 1455 1457 1459 1461 1464 1466 1469 1472 1474 1478 1481 1484 1487 1491 1494 1497 1500 1503 1506 1508 1511 1513 1515 1517 1519 1521 1523
1482 1481 1470 1463 1462 1458 1457 1456 1456 1455 1453 1452 1452 1452 1451 1450 1449 1448 1449 1449 1450 1451 1453 1454 1456 1458 1460 1463 1466 1468 1471 1475 1478 1482 1485 1489 1492 1495 1498 1501 1504 1507 1510 1512 1514 1516 1518 1521 1523
1480 1476 1466 1463 1462 1461 1459 1458 1457 1455 1453 1450 1449 1448 1447 1447 1447 1446 1446 1447 1447 1448 1449 1451 1453 1455 1457 1459 1462 1465 1468 1471 1475 1478 1482 1486 1489 1492 1496 1499 1502 1506 1508 1511 1513 1516 1518 1520 1523
1474 1470 1466 1464 1464 1462 1459 1458 1457 1455 1450 1449 1447 1445 1445 1444 1443 1443 1443 1443 1444 1445 1445 1446 1448 1450 1452 1454 1457 1460 1463 1467 1470 1474 1478 1482 1486 1489 1493 1496 1500 1503 1506 1509 1512 1515 1517 1520 1523
1472 1468 1466 1463 1463 1461 1458 1455 1453 1451 1447 1447 1444 1442 1440 1439 1439 1439 1438 1439 1439 1440 1441 1442 1444 1446 1448 1450 1452 1455 1458 1462 1465 1469 1473 1477 1481 1485 1489 1493 1497 1500 1504 1507 1510 1513 1517 1519 1522
1470 1466 1464 1462 1460 1458 1455 1451 1447 1444 1443 1441 1439 1437 1436 1435 1434 1434 1434 1434 1434 1435 1436 1437 1438 1440 1443 1445 1447 1450 1453 1457 1461 1465 1469 1473 1476 1481 1485 1489 1493 1498 1501 1505 1509 1512 1515 1518 1521
1468 1465 1463 1460 1456 1453 1449 1443 1442 1437 1437 1436 1434 1432 1431 1429 1429 1428 1428 1428 1428 1429 1430 1432 1433 1435 1437 1439 1442 1445 1448 1452 1456 1460 1464 1468 1472 1477 1481 1485 1490 1495 1499 1503 1507 1511 1514 1517 1520
1467 1463 1458 1452 1449 1446 1444 1437 1434 1432 1432 1430 1428 1426 1425 1424 1423 1423 1423 1423 1422 1423 1425 1426 1427 1429 1432 1434 1437 1440 1443 1447 1451 1455 1459 1463 1468 1472 1477 1482 1486 1491 1496 1501 1505 1509 1513 1516 1519
1462 1460 1456 1446 1444 1441 1444 1435 1428 1428 1427 1424 1422 1420 1419 1418 1417 1417 1417 1417 1417 1418 1419 1420 1422 1423 1425 1428 1431 1434 1438 1441 1445 1449 1454 1458 1463 1468 1473 1478 1482 1487 1493 1498 1502 1506 1510 1514 1517
1459 1461 1454 1446 1441 1439 1438 1430 1424 1424 1421 1418 1416 1415 1413 1412 1412 1411 1411 1412 1411 1412 1413 1414 1416 1417 1419 1422 1426 1429 1433 1436 1440 1444 1449 1453 1458 1463 1468 1474 1479 1484 1489 1494 1499 1504 1508 1511 1515
1464 1460 1453 1448 1440 1437 1433 1426 1421 1418 1416 1413 1411 1409 1409 1408 1406 1405 1405 1405 1405 1406 1407 1408 1410 1412 1414 1417 1420 1424 1427 1430 1434 1438 1443 1447 1453 1457 1463 1469 1475 1480 1485 1491 1496 1500 1505 1509 1513
1461 1459 1453 1444 1438 1435 1430 1423 1417 1413 1411 1408 1406 1405 1404 1403 1402 1401 1400 1399 1399 1399 1400 1402 1404 1405 1407 1410 1413 1416 1419 1423 1428 1432 1436 1442 1447 1452 1458 1464 1470 1476 1481 1486 1492 1497 1502 1506 1510
1459 1456 1450 1439 1434 1434 1426 1418 1412 1409 1407 1405 1403 1401 1400 1399 1397 1396 1395 1394 1394 1394 1395 1396 1398 1400 1401 1404 1408 1412 1415 1418 1423 1427 1431 1437 1442 1447 1452 1458 1464 1471 1477 1482 1488 1493 1498 1503 1507
1457 1454 1447 1443 1434 1429 1425 1416 1408 1404 1403 1402 1400 1399 1398 1398 1396 1394 1391 1389 1389 1389 1389 1390 1392 1394 1397 1400 1403 1407 1411 1414 1418 1421 1426 1432 1438 1443 1448 1453 1459 1466 1472 1477 1483 1488 1493 1497 1503
1456 1448 1444 1439 1440 1435 1429 1428 1411 1406 1403 1401 1399 1398 1397 1396 1394 1391 1389 1386 1385 1384 1385 1386 1387 1389 1392 1395 1398 1401 1404 1407 1411 1416 1421 1427 1433 1438 1444 1449 1455 1461 1467 1473 1479 1484 1489 1493 1498
1453 1446 1442 1436 1435 1434 1426 1429 1415 1406 1403 1401 1400 1398 1397 1395 1392 1390 1387 1385 1383 1382 1381 1382 1383 1385 1387 1390 1393 1396 1400 1404 1408 1413 1417 1423 1429 1435 1440 1445 1451 1457 1463 1468 1474 1480 1485 1489 1494
1451 1446 1437 1429 1430 1437 1422 1423 1416 1410 1405 1403 1400 1399 1397 1395 1392 1389 1386 1383 1381 1379 1379 1379 1380 1381 1383 1386 1388 1391 1394 1399 1402 1407 1413 1418 1424 1431 1436 1441 1447 1452 1458 1464 1469 1475 1480 1485 1490
1454 1457 1455 1449 1441 1432 1414 1415 1415 1407 1404 1403 1401 1400 1397 1394 1391 1388 1384 1381 1379 1377 1376 1376 1377 1378 1380 1382 1384 1387 1390 1394 1397 1401 1407 1413 1419 1425 1431 1437 1442 1448 1454 1460 1465 1471 1476 1481 1486
1458 1459 1468 1468 1453 1433 1420 1416 1413 1406 1403 1402 1401 1399 1397 1394 1391 1387 1384 1381 1378 1376 1375 1374 1375 1375 1377 1378 1380 1383 1385 1389 1393 1397 1402 1408 1413 1420 1427 1432 1438 1444 1450 1456 1461 1467 1472 1477 1482
1459 1459 1456 1459 1452 1445 1425 1412 1409 1405 1403 1401 1399 1398 1396 1394 1391 1387 1383 1380 1377 1374 1373 1373 1372 1372 1374 1376 1377 1379 1381 1385 1388 1393 1398 1403 1409 1415 1422 1428 1434 1440 1445 1451 1457 1462 1468 1473 1478
1456 1456 1459 1462 1461 1448 1427 1416 1417 1409 1405 1403 1401 1399 1396 1394 1390 1386 1382 1378 1375 1373 1371 1371 1370 1370 1371 1372 1374 1376 1378 1380 1384 1388 1392 1398 1403 1410 1416 1423 1429 1435 1441 1446 1452 1457 1463 1469 1473
1457 1458 1458 1459 1454 1453 1442 1426 1409 1410 1407 1405 1403 1400 1398 1394 1391 1387 1382 1378 1375 1371 1369 1368 1367 1367 1367 1368 1370 1371 1373 1376 1380 1383 1388 1393 1398 1404 1410 1417 1423 1429 1436 1441 1447 1452 1458 1463 1469
1452 1455 1458 1465 1459 1450 1444 1428 1409 1408 1406 1404 1402 1400 1397 1394 1390 1387 1382 1378 1374 1371 1368 1367 1365 1365 1364 1365 1366 1367 1369 1372 1375 1379 1383 1389 1394 1399 1405 1412 1418 1424 1430 1436 1442 1447 1452 1458 1463